[[{"header":{"parameterUnit":"m.s-1","parameterCategory":1,"la1":30.2992,"la2":30.254,"lo1":-89.0895,"lo2":-89.0443,"dy":0.0025,"dx":0.0025,"nx":19,"ny":19,"refTime":"2026-04-09T03:00:00:Z","depth":0,"parameterNumber":2,"parameterNumberName":"U-component_of_WINDS"},"data":[0,0,0,-2.7001,-2.7002,-2.7008,-2.7008,-2.7041,-2.7042,0,0,0,0,0,0,0,0,0,0,0,-2.7013,-2.7014,-2.7001,-2.7002,-2.7008,-2.7008,-2.7041,-2.7042,0,0,0,0,0,0,0,0,0,0,0,-2.7013,-2.7014,-2.7014,-2.7002,-2.7008,-2.7008,-2.7041,-2.7027,0,0,0,0,0,0,0,0,0,0,-2.7017,-2.7041,-2.7013,-2.7014,-2.7002,-2.7008,-2.7008,-2.7026,-2.7028,-2.7048,0,-2.7069,0,-2.7056,-2.7045,-2.7046,0,0,0,-2.6991,-2.704,-2.7029,-2.7015,-2.7002,-2.7008,-2.7002,-2.7027,-2.7029,-2.7051,-2.707,-2.707,-2.7057,-2.7046,-2.7046,-2.7195,-2.7197,0,0,-2.6991,-2.7022,-2.7028,-2.7031,-2.7031,-2.7002,-2.7003,-2.7028,-2.705,-2.707,-2.707,-2.7057,-2.7046,-2.7046,-2.7194,-2.7196,0,0,0,-2.6997,-2.7022,-2.701,-2.703,-2.703,-2.7003,-2.7003,-2.7049,-2.7043,-2.7071,-2.7058,-2.7046,-2.7047,-2.7193,-2.7195,-2.7282,0,0,0,-2.6996,-2.7025,-2.701,-2.7029,-2.703,-2.7039,-2.7024,-2.7041,-2.7043,-2.7057,-2.7046,-2.7048,-2.7191,-2.7194,-2.7277,-2.7319,0,0,0,-2.7008,-2.7027,-2.7032,-2.7031,-2.7035,-2.7038,-2.7033,-2.7041,-2.7036,-2.7046,-2.7048,-2.7191,-2.7193,-2.7272,-2.7311,-2.7367,0,0,0,-2.703,-2.711,-2.7034,-2.712,-2.7035,-2.7093,-2.7032,-2.7073,-2.7093,-2.7047,-2.7192,-2.7195,-2.7271,-2.7306,-2.7362,-2.7419,-2.7446,0,0,-2.7149,-2.7126,-2.7174,-2.7106,-2.7184,-2.7089,-2.7181,-2.7169,-2.7143,-2.718,-2.7183,-2.7279,-2.731,-2.7366,-2.7586,-2.7608,0,0,0,-2.7222,-2.7257,-2.7271,-2.729,-2.7284,-2.7281,-2.7253,-2.7249,-2.7278,-2.7168,-2.7314,-2.7331,-2.7363,-2.7388,-2.7407,-2.7432,-2.7208,-2.7208,-2.7207,-2.7434,-2.7396,-2.7472,-2.7435,-2.7455,-2.7425,-2.7438,-2.7427,-2.7382,-2.7418,-2.7428,-2.7567,-2.7598,-2.7612,-2.7638,-2.7456,-2.7456,-2.7457,-2.7457,-2.7605,-2.7648,-2.7587,-2.7639,-2.7599,-2.7643,-2.7618,-2.7585,-2.7621,-2.7555,-2.7581,-2.7512,-2.7636,-2.7658,-2.7463,-2.7462,-2.7461,-2.7461,-2.746,-2.7739,-2.7753,-2.7747,-2.7771,-2.7796,-2.7755,-2.7793,-2.7754,-2.7719,-2.7744,-2.7751,-2.7749,-2.7743,-2.775,-2.7751,-2.7751,-2.7752,-2.7752,-2.7752,-2.788,-2.787,-2.7905,-2.7906,-2.7914,-2.792,-2.7893,-2.79,-2.7898,-2.7867,-2.7867,-2.7819,-2.7656,-2.7615,-2.776,-2.7758,-2.7757,-2.7757,-2.7756,-2.8066,-2.8018,-2.8073,-2.8081,-2.8079,-2.8106,-2.8057,-2.8076,-2.8076,-2.8096,-2.8043,-2.7929,-2.7903,-2.7888,-2.7854,-2.8051,-2.8051,-2.8051,-2.8051,-2.8178,-2.8161,-2.8209,-2.8225,-2.8237,-2.8199,-2.8263,-2.8243,-2.8215,-2.8214,-2.818,-2.8132,-2.8119,-2.81,-2.8081,-2.8048,-2.8291,-2.8291,-2.8291,-2.829,-2.8273,-2.8335,-2.8306,-2.8303,-2.8301,-2.8361,-2.8382,-2.834,-2.83,-2.8211,-2.8201,-2.8124,-2.81,-2.8057,-2.8028,-2.7967,0,0]},{"header":{"parameterUnit":"m.s-1","parameterCategory":1,"la1":30.2992,"la2":30.254,"lo1":-89.0895,"lo2":-89.0443,"dy":0.0025,"dx":0.0025,"nx":19,"ny":19,"refTime":"2026-04-09T03:00:00:Z","depth":0,"parameterNumber":3,"parameterNumberName":"V-component_of_WINDS"},"data":[0,0,0,2.4064,2.4065,2.4132,2.4132,2.4205,2.4205,0,0,0,0,0,0,0,0,0,0,0,2.4037,2.4038,2.4064,2.4065,2.4132,2.4132,2.4205,2.4205,0,0,0,0,0,0,0,0,0,0,0,2.4037,2.4038,2.4038,2.4065,2.4132,2.4132,2.4205,2.4158,0,0,0,0,0,0,0,0,0,0,2.4096,2.4065,2.4038,2.4038,2.4066,2.4132,2.4132,2.4156,2.4161,2.417,0,2.4176,0,2.4192,2.421,2.421,0,0,0,2.4069,2.4061,2.4085,2.4038,2.4066,2.4131,2.4103,2.4159,2.4165,2.4176,2.4177,2.418,2.4193,2.421,2.421,2.4247,2.4247,0,0,2.4066,2.4045,2.4081,2.4089,2.4079,2.4101,2.4105,2.4163,2.4162,2.4178,2.4182,2.4194,2.421,2.4211,2.4247,2.4247,0,0,0,2.4052,2.4043,2.4066,2.4085,2.4098,2.4103,2.4107,2.416,2.4169,2.4183,2.4195,2.4211,2.4211,2.4247,2.4247,2.4226,0,0,0,2.405,2.4035,2.4064,2.4052,2.4097,2.413,2.4103,2.4165,2.4172,2.4195,2.4211,2.4212,2.4247,2.4247,2.4227,2.4219,0,0,0,2.4035,2.4033,2.4041,2.4051,2.4079,2.413,2.4143,2.4167,2.4179,2.421,2.4212,2.4247,2.4247,2.4228,2.4221,2.4224,0,0,0,2.4013,2.402,2.404,2.4053,2.4078,2.4117,2.4142,2.4172,2.4195,2.4211,2.4247,2.4247,2.4228,2.4221,2.4224,2.4223,2.422,0,0,2.4011,2.4019,2.4029,2.4048,2.4078,2.4108,2.4135,2.4175,2.4195,2.4228,2.4229,2.4227,2.4221,2.4224,2.4214,2.4211,0,0,0,2.4021,2.4027,2.404,2.4062,2.4094,2.4121,2.4159,2.4174,2.4203,2.4209,2.4229,2.4226,2.4229,2.4229,2.4227,2.4231,2.4246,2.4246,2.4246,2.3988,2.4016,2.4033,2.4069,2.409,2.413,2.415,2.4177,2.4197,2.4201,2.4211,2.4202,2.4201,2.42,2.4204,2.4213,2.4213,2.4213,2.4213,2.3988,2.4001,2.403,2.4057,2.4086,2.4108,2.4147,2.4161,2.4186,2.4196,2.42,2.4209,2.4197,2.4202,2.4211,2.4211,2.4212,2.4212,2.4212,2.3969,2.398,2.4,2.4036,2.406,2.4096,2.4119,2.4144,2.4167,2.4171,2.4184,2.4185,2.4188,2.4176,2.4176,2.4176,2.4176,2.4176,2.4176,2.3942,2.3965,2.3982,2.4017,2.4035,2.4062,2.4104,2.4122,2.4148,2.4165,2.4165,2.4185,2.4191,2.4192,2.4175,2.4175,2.4176,2.4176,2.4176,2.3931,2.3938,2.3964,2.3983,2.4027,2.405,2.4082,2.4117,2.4136,2.4146,2.4166,2.4167,2.4176,2.4178,2.4179,2.416,2.416,2.416,2.416,2.3915,2.3923,2.3957,2.3985,2.4015,2.4047,2.4075,2.4108,2.4142,2.4155,2.4161,2.4165,2.4165,2.4175,2.4177,2.4178,2.4159,2.4159,2.4159,2.391,2.3923,2.3942,2.3977,2.4014,2.4044,2.4072,2.4102,2.4142,2.416,2.4166,2.4166,2.4172,2.4172,2.4189,2.4191,2.4194,0,0]}]]